sat.trackr.live / text

‹ back to catalog

STARLINK-34275

NORAD 64413 · 2025-129B

PAYLOAD ACTIVE UNKNOWN

§ Identity

Operator
Country
US
Launch date
2025-06-17
Launch site
AFWTR
Launch vehicle
Mass (kg)
RCS (m²)

Purposes: comms

External: N2YO · Heavens-Above · Gunter

§ Orbital elements

Epoch: 2026-09-20T20:18:25.553376Z

Period
94.14 min
Inclination
70.0006°
Eccentricity
0.0003450
Mean motion
15.29578576 rev/d
Perigee alt
474.7 km
Apogee alt
479.4 km
Semi-major
6,855.2 km
B*
2.8625e-4
RAAN
299.8549°
Arg perigee
276.5039°
Mean anomaly
83.5744°
Rev number
7,058

§ Raw data

STARLINK-342751 64413U 25129B   26263.84612909  .00008110  00000+0  28625-3 0  99902 64413  70.0006 299.8549 0003450 276.5039  83.5744 15.29578576 70589

JSON: /api/v1/satellites/64413 · /tle

For live sub-satellite position, see the globe view (requires WebGL).

§ Visibility from observer

Set your observer location to see the next 7 days of passes ≥ 10°. The values pass through the URL so the page stays shareable.

No JS? Fill the form by hand. The geolocation button needs JavaScript.